Location: Katowice
(50.2611°N, 19.0242°E)
Time: 04:21:04
(UTC+02:00)

A-11 Canister half - Pass Details

Date: 26 July 2019
Orbit: 1526 x 1683 km, 47.3° (Epoch: 23 August)

Event Time Altitude Azimuth Distance (km) Brightness Sun altitude
Rises 02:55:22 0° 289° (WNW) 4,844 11.5 -15.0°
Reaches altitude 10° 02:59:03 10° 278° (W) 3,830 10.9 -14.7°
Maximum altitude 03:06:48 28° 225° (SW) 2,612 9.6 -14.0°
Drops below altitude 10° 03:14:23 10° 171° (S) 3,723 10.6 -13.3°
Sets 03:17:56 0° 160° (SSE) 4,687 11.2 -13.0°
